Location: Alta
(39.2070°N, 120.8111°W)
Time: 01:19:46
(UTC+00:00)

ITAMSAT 1 - Pass Details

Date: 10 April 2023
Orbit: 782 x 797 km, 98.8° (Epoch: 29 May)

Event Time Altitude Azimuth Distance (km) Brightness Sun altitude
Exits shadow 03:57:44 - 174° (S) 2,952 10.3 -16.1°
Reaches altitude 10° 03:59:15 10° 176° (S) 2,354 9.8 -16.4°
Maximum altitude 04:04:25 65° 258° (WSW) 873 8.0 -17.3°
Drops below altitude 10° 04:09:38 10° 340° (NNW) 2,375 10.8 -18.2°
Sets 04:12:00 0° 344° (NNW) 3,309 11.6 -18.6°
